Regional Weather Roundup
Issued by NWS Kansas City/Pleasant Hill, MO

Home | Current Version | Previous Version | Graphics & Text | Print | Product List | Glossary Off
Versions: 1 2 3 4 5 6 7 8 9 10 11 12 13 14 15 16 17 18 19 20 21 22 23 24 25 26 27 28 29 30 31 32 33 34 35 36 37 38 39 40 41 42 43 44 45 46 47 48 49 50

000
ASUS43 KEAX 191510
RWREAX

WEATHER ROUNDUP FOR EASTERN KANSAS AND NORTHWEST MISSOURI
NATIONAL WEATHER SERVICE KANSAS CITY/PLEASANT HILL MO
1000 AM CDT TUE SEP 19 2017

KSZ040-057-103>105-MOZ028-029-037-043-191600-
...KANSAS CITY METROPOLITAN AREA...

CITY           SKY/WX    TMP DP  RH WIND       PRES   REMARKS
K.C. INTL      PTSUNNY   74  69  85 SE15      29.90S
K.C. DOWNTOWN  PTSUNNY   76  69  79 SE8       29.89S
LEES SUMMIT    SUNNY     74  69  85 SE13      29.92S
OLATHE - IXD   MOSUNNY   72  67  84 SE14      29.91S
OLATHE - OJC   MOSUNNY   71  69  93 S10       29.91F
LAWRENCE       SUNNY     74  68  81 E10       29.88S

$$

MOZ001>008-011>017-020>025-030>033-038>040-044>046-053-054-191600-
...NORTHERN AND CENTRAL MISSOURI...

CITY           SKY/WX    TMP DP  RH WIND       PRES   REMARKS
ST. JOSEPH     MOSUNNY   74  69  85 S9        29.88S
MOSBY          MOSUNNY   72  68  88 S6        29.90F
WARRENSBURG    MOSUNNY   68  68 100 SE7       29.92F
WHITEMAN AFB   PTSUNNY   70 N/A N/A S6        29.92F
CLINTON        CLOUDY    68  68 100 SE6       29.94F FOG
SEDALIA        CLOUDY    72  71  97 S3        29.96R
WARSAW         NOT AVBL
CHILLICOTHE      N/A     68  68 100 S6        29.94R
KIRKSVILLE     FOG       67  66  97 SE9       29.96R VSB 1/2

$$

MOZ041-047>049-056>058-063>065-088>090-097-191600-
...EASTERN AND SOUTHERN MISSOURI...

CITY           SKY/WX    TMP DP  RH WIND       PRES   REMARKS
ST. LOUIS INTL MOSUNNY   75  70  84 CALM      29.98R
SPIRIT OF STL  CLOUDY    70  70 100 SE3       29.97S FOG
COLUMBIA       CLOUDY    70  70 100 SE5       29.96S FOG
JEFFERSON CITY CLOUDY    68  67  96 SE6       29.95F FOG
ROLLA          MOSUNNY   75  71  87 SW7       29.99R
OSAGE BEACH    CLOUDY    70  69  97 SE3       29.97S
SPRINGFIELD    MOSUNNY   77  69  76 S8        29.96R
BRANSON        MOSUNNY   77  68  73 SE7       29.99R
JOPLIN         SUNNY     79  71  76 S10       29.93S
WEST PLAINS    SUNNY     76  69  79 CALM      30.01R

$$

IAZ060-094-KSZ022-034>040-054-083-096-NEZ052-066-093-191600-
...KANSAS...SOUTHEAST NEBRASKA AND IOWA...

CITY           SKY/WX    TMP DP  RH WIND       PRES   REMARKS
TOPEKA         SUNNY     76  69  79 SE8       29.85S
MANHATTAN      SUNNY     80  67  64 S9        29.79F
EMPORIA        SUNNY     76  67  73 S13       29.84F
CHANUTE        SUNNY     77  69  76 S13       29.89S
WICHITA        MOSUNNY   80  68  66 S23       29.82R
OMAHA          CLOUDY    71  66  84 SE14      29.82F
LINCOLN        SUNNY     74  66  76 SE16      29.79F
FALLS CITY     SUNNY     74  68  81 S16       29.84S
LAMONI         CLOUDY    67  67 100 SE12      29.91R FOG
DES MOINES     CLOUDY    65  65 100 SE8       29.90R FOG

$$




USA.gov is the U.S. government's official web portal to all federal, state and local government web resources and services.